Weather History for St. James, MN

Change the Weather History Date:

Tuesday, October 16, 2012

  Actual Average Record
Temperature  
Mean Temperature 59 °F -  
Max Temperature 68 °F 58 °F 83 °F (1961)
Min Temperature 50 °F 35 °F 25 °F (1978)
Degree Days  
Heating Degree Days 6    
Growing Degree Days 9 (Base 50)    
Moisture  
Dew Point 44 °F    
Average Humidity 63    
Maximum Humidity 82    
Minimum Humidity 43    
Precipitation  
Precipitation 0.00 in - - ()
Sea Level Pressure  
Sea Level Pressure 29.51 in    
Wind  
Wind Speed 8 mph (SSE)    
Max Wind Speed 18 mph    
Max Gust Speed 22 mph    
Visibility 10 miles    
Events Rain    
Averages and records for this station are not official NWS values.
T = Trace of Precipitation, MM = Missing Value Source: NWS Daily Summary

Daily Weather History Graph

Daily Weather History Graph

Search for Another Location

Airport:

Trip Planner

Search our weather history database for the weather conditions in past years. The results will help you decide how hot, cold, wet, or windy it might be!

Date:

Astronomy

Oct. 16, 2012 Rise Set
Actual Time 7:34 AM CDT 6:31 PM CDT
Civil Twilight 7:05 AM CDT 7:01 PM CDT
Nautical Twilight 6:32 AM CDT 7:34 PM CDT
Astronomical Twilight 5:58 AM CDT 8:07 PM CDT
Moon 9:03 AM CDT (10/16) 7:11 PM CDT (10/16)
Length of Visible Light 11h 55m
Length of Day
10h 57m
New Moon, 2% of the Moon is Illuminated
Oct 16
New Moon
Oct 21
First Quarter
Oct 29
Full
Nov 6
Last Quarter
Nov 13
New

Hourly Weather History & Observations

Time (CDT) Temp. Dew Point Humidity Pressure Visibility Wind Dir Wind Speed Gust Speed Precip Events Conditions
12:15 AM 55.4 °F 39.2 °F 54% 29.72 in 10.0 mi SSE 16.1 mph 20.7 mph N/A   Clear
12:35 AM 55.4 °F 39.2 °F 54% 29.71 in 10.0 mi SSE 17.3 mph 20.7 mph N/A   Clear
12:55 AM 55.4 °F 39.2 °F 54% 29.70 in 10.0 mi SSE 18.4 mph 21.9 mph N/A   Clear
1:15 AM 55.4 °F 39.2 °F 54% 29.69 in 10.0 mi SSE 16.1 mph 20.7 mph N/A   Clear
1:35 AM 55.4 °F 39.2 °F 54% 29.69 in 10.0 mi SSE 15.0 mph - N/A   Clear
1:55 AM 53.6 °F 39.2 °F 58% 29.68 in 10.0 mi SSE 13.8 mph - N/A   Clear
2:15 AM 55.4 °F 39.2 °F 54% 29.67 in 10.0 mi SSE 13.8 mph - N/A   Clear
2:35 AM 53.6 °F 41.0 °F 62% 29.67 in 10.0 mi South 12.7 mph - N/A   Clear
2:55 AM 53.6 °F 41.0 °F 62% 29.66 in 10.0 mi SSE 12.7 mph - N/A   Clear
3:15 AM 53.6 °F 41.0 °F 62% 29.64 in 10.0 mi SSE 13.8 mph - N/A   Clear
3:34 AM 55.4 °F 42.8 °F 63% 29.63 in 10.0 mi SSE 13.8 mph 19.6 mph N/A   Clear
3:55 AM 53.6 °F 42.8 °F 67% 29.62 in 10.0 mi South 15.0 mph - N/A   Clear
4:15 AM 53.6 °F 42.8 °F 67% 29.62 in 10.0 mi South 13.8 mph 18.4 mph N/A   Scattered Clouds
4:35 AM 55.4 °F 42.8 °F 63% 29.61 in 10.0 mi SSE 13.8 mph 19.6 mph N/A   Clear
4:55 AM 53.6 °F 42.8 °F 67% 29.60 in 10.0 mi SSE 12.7 mph - N/A   Clear
5:14 AM 53.6 °F 42.8 °F 67% 29.58 in 10.0 mi SSE 15.0 mph - N/A   Clear
5:35 AM 53.6 °F 42.8 °F 67% 29.58 in 10.0 mi South 11.5 mph - N/A   Clear
5:55 AM 53.6 °F 42.8 °F 67% 29.59 in 10.0 mi Calm Calm - N/A   Clear
6:15 AM 53.6 °F 42.8 °F 67% 29.61 in 10.0 mi Calm Calm - N/A   Clear
6:35 AM 53.6 °F 42.8 °F 67% 29.60 in 10.0 mi South 3.5 mph - N/A   Clear
7:15 AM 53.6 °F 42.8 °F 67% 29.58 in 10.0 mi SSE 10.4 mph - N/A   Clear
7:35 AM 53.6 °F 42.8 °F 67% 29.57 in 10.0 mi SSE 10.4 mph - N/A   Scattered Clouds
7:55 AM 53.6 °F 42.8 °F 67% 29.55 in 10.0 mi Calm Calm - N/A Rain Light Rain
8:15 AM 51.8 °F 44.6 °F 76% 29.57 in 10.0 mi Calm Calm - N/A   Scattered Clouds
8:35 AM 50.0 °F 44.6 °F 82% 29.57 in 10.0 mi Calm Calm - N/A   Clear
8:54 AM 51.8 °F 44.6 °F 76% 29.56 in 10.0 mi Calm Calm - N/A   Clear
9:15 AM 51.8 °F 44.6 °F 76% 29.54 in 10.0 mi SE 9.2 mph - N/A   Scattered Clouds
9:35 AM 53.6 °F 44.6 °F 72% 29.55 in 10.0 mi Calm Calm - N/A   Scattered Clouds
9:55 AM 53.6 °F 46.4 °F 77% 29.55 in 10.0 mi Calm Calm - N/A   Clear
10:15 AM 55.4 °F 44.6 °F 67% 29.55 in 10.0 mi Calm Calm - N/A   Clear
10:35 AM 55.4 °F 44.6 °F 67% 29.53 in 10.0 mi Calm Calm - N/A   Clear
10:55 AM 55.4 °F 44.6 °F 67% 29.54 in 10.0 mi Calm Calm - N/A   Clear
11:14 AM 55.4 °F 46.4 °F 72% 29.52 in 10.0 mi Calm Calm - N/A   Clear
11:35 AM 57.2 °F 46.4 °F 67% 29.53 in 10.0 mi Calm Calm - N/A   Clear
11:55 AM 57.2 °F 46.4 °F 67% 29.52 in 10.0 mi Calm Calm - N/A   Clear
12:15 PM 59.0 °F 46.4 °F 63% 29.50 in 10.0 mi Calm Calm - N/A   Clear
12:35 PM 60.8 °F 46.4 °F 59% 29.50 in 10.0 mi Calm Calm - N/A   Clear
12:55 PM 62.6 °F 46.4 °F 55% 29.48 in 10.0 mi Calm Calm - N/A   Clear
1:15 PM 62.6 °F 46.4 °F 55% 29.47 in 10.0 mi Calm Calm - N/A   Clear
1:35 PM 62.6 °F 46.4 °F 55% 29.46 in 10.0 mi Calm Calm - N/A   Clear
1:55 PM 64.4 °F 46.4 °F 52% 29.45 in 10.0 mi Calm Calm - N/A   Clear
2:15 PM 64.4 °F 46.4 °F 52% 29.44 in 10.0 mi Calm Calm - N/A   Clear
2:35 PM 66.2 °F 46.4 °F 49% 29.44 in 10.0 mi Calm Calm - N/A   Clear
2:55 PM 64.4 °F 46.4 °F 52% 29.45 in 10.0 mi Calm Calm - N/A   Clear
3:15 PM 66.2 °F 46.4 °F 49% 29.44 in 10.0 mi Calm Calm - N/A   Clear
3:35 PM 66.2 °F 46.4 °F 49% 29.44 in 10.0 mi Calm Calm - N/A   Clear
3:55 PM 66.2 °F 44.6 °F 46% 29.43 in 10.0 mi Calm Calm - N/A   Clear
4:15 PM 66.2 °F 44.6 °F 46% 29.42 in 10.0 mi Calm Calm - N/A   Clear
4:54 PM 68.0 °F 44.6 °F 43% 29.42 in 10.0 mi Calm Calm - N/A   Clear
5:15 PM 66.2 °F 44.6 °F 46% 29.41 in 10.0 mi Calm Calm - N/A   Clear
5:35 PM 66.2 °F 44.6 °F 46% 29.40 in 10.0 mi Calm Calm - N/A   Clear
5:54 PM 66.2 °F 44.6 °F 46% 29.40 in 10.0 mi Calm Calm - N/A   Clear
6:15 PM 62.6 °F 44.6 °F 52% 29.40 in 10.0 mi Calm Calm - N/A   Clear
6:35 PM 60.8 °F 44.6 °F 55% 29.41 in 10.0 mi Calm Calm - N/A   Clear
6:55 PM 57.2 °F 42.8 °F 59% 29.41 in 10.0 mi Calm Calm - N/A   Clear
7:15 PM 57.2 °F 44.6 °F 63% 29.41 in 10.0 mi Calm Calm - N/A   Clear
7:35 PM 53.6 °F 42.8 °F 67% 29.41 in 10.0 mi Calm Calm - N/A   Clear
7:55 PM 53.6 °F 44.6 °F 72% 29.41 in 10.0 mi Calm Calm - N/A   Clear
8:14 PM 51.8 °F 44.6 °F 76% 29.41 in 10.0 mi Calm Calm - N/A   Clear
8:35 PM 53.6 °F 42.8 °F 67% 29.41 in 10.0 mi Calm Calm - N/A   Clear
8:55 PM 53.6 °F 42.8 °F 67% 29.41 in 10.0 mi Calm Calm - N/A   Clear
9:15 PM 53.6 °F 42.8 °F 67% 29.41 in 10.0 mi Calm Calm - N/A   Scattered Clouds
9:35 PM 51.8 °F 44.6 °F 76% 29.41 in 10.0 mi Calm Calm - N/A   Clear
9:55 PM 50.0 °F 42.8 °F 76% 29.39 in 10.0 mi Calm Calm - N/A   Clear
10:34 PM 51.8 °F 42.8 °F 71% 29.37 in 10.0 mi Calm Calm - N/A   Clear
10:55 PM 50.0 °F 42.8 °F 76% 29.37 in 10.0 mi Calm Calm - N/A   Clear
11:14 PM 51.8 °F 42.8 °F 71% 29.38 in 10.0 mi Calm Calm - N/A   Clear
11:35 PM 51.8 °F 42.8 °F 71% 29.37 in 10.0 mi Calm Calm - N/A   Clear
11:55 PM 51.8 °F 42.8 °F 71% 29.37 in 10.0 mi Calm Calm - N/A   Clear